Regional Weather Roundup
Issued by NWS

Home | Current Version | Previous Version | Text Only | Print | Product List | Glossary Off
Versions: 1 2 3 4 5 6 7 8 9 10 11 12 13 14 15 16 17 18 19 20 21 22 23 24 25 26 27 28 29 30 31 32 33 34 35 36 37 38 39 40 41 42 43 44 45 46 47 48 49 50

000
ASUS43 KMKX 291300
RWRWI

WISCONSIN REGIONAL WEATHER ROUNDUP
NATIONAL WEATHER SERVICE MILWAUKEE/SULLIVAN WI
700 AM CST MON DEC 29 2014

NOTE: "FAIR" INDICATES FEW OR NO CLOUDS BELOW 12,000 FEET WITH NO
SIGNIFICANT WEATHER AND/OR OBSTRUCTIONS TO VISIBILITY.

WIZ001-002-006>008-014>016-023>028-291400-
NORTHWEST WISCONSIN

CITY           SKY/WX    TMP DP  RH WIND       PRES   REMARKS
SUPERIOR ARPT  PTCLDY    -3  -9  74 N6        30.52R WCI -15
ASHLAND        CLOUDY     2  -3  80 NW6       30.46R WCI  -9
HAYWARD        FAIR     -11 -17  75 CALM      30.43R
SIREN          PTCLDY    -5  -9  82 CALM      30.49R
CUMBERLAND     MOCLDY    -4  -9  77 N10       30.43R WCI -21
RICE LAKE      MOCLDY    -2  -8  77 NW6       30.46R WCI -14
CHETEK         MOCLDY    -3  -7  81 MISG      30.45R
LADYSMITH      PTCLDY    -5  -8  84 NW5       30.42R WCI -15
EAU CLAIRE     NOT AVBL
MENOMONIE      MOCLDY     3  -5  70 NW10      30.46R WCI -13
NEW RICHMOND   PTCLDY     0  -6  75 N8        30.47R WCI -14
OSCEOLA        PTCLDY     0  -6  75 N7        30.52R WCI -13
$$

WIZ003>005-009-010-017-018-291400-
NORTH CENTRAL WISCONSIN

CITY           SKY/WX    TMP DP  RH WIND       PRES   REMARKS
MANITOWISH WTR FLURRIES  -1  -4  85 CALM      30.32R
ARBOR VITAE    CLOUDY     1  -3  83 CALM      30.32R
WOODRUFF       CLOUDY     1  -3  83 CALM      30.32R
RHINELANDER    MOCLDY    -7 -11  83 CALM      30.31R
EAGLE RIVER    FLURRIES  -1  -6  79 CALM      30.30R
LAND O LAKES   CLOUDY     7   2  82 NW7       30.30R WCI  -5
PHILLIPS       PTCLDY   -17 -21  79 CALM      30.35R HAZE
TOMAHAWK       FLURRIES -11 -15  82 CALM      30.35R
MEDFORD        PTCLDY   N/A N/A N/A N3        30.34R
MERRILL        MOCLDY    -4  -8  84 CALM      30.35R
$$

WIZ029-030-035-036-043>047-291400-
CENTRAL WISCONSIN

CITY           SKY/WX    TMP DP  RH WIND       PRES   REMARKS
WAUSAU         MOCLDY     2  -2  83 NW5       30.35R WCI  -8
MOSINEE        NOT AVBL
MARSHFIELD     MOCLDY     3  -2  79 NW6       30.36R WCI  -8
STEVENS POINT  MOCLDY     5   0  81 N3        30.38R
WAUPACA        MOCLDY    14   7  73 NW6       30.40R WCI   5
WAUTOMA        NOT AVBL
WISC RAPIDS    MOCLDY     9   2  73 N6        30.40R WCI  -1
CAMP DOUGLAS   NOT AVBL
$$

WIZ011>013-019>022-031-037>040-048>050-291400-
NORTHEAST WISCONSIN

CITY           SKY/WX    TMP DP  RH WIND       PRES   REMARKS
ANTIGO         MOCLDY    -2  -5  87 NW6       30.31S WCI -14
SHAWANO        CLOUDY    11   6  79 W3        30.39R
OCONTO         MOCLDY    12   6  77 NW3       30.38R
STURGEON BAY   MOCLDY    14   7  73 N13       30.37R WCI   0
GREEN BAY      CLOUDY    15   8  73 NW7       30.39R WCI   5
MANITOWOC      NOT AVBL
APPLETON       PTCLDY    12   7  79 NW6       30.38R WCI   3
CLINTONVILLE   MOCLDY    12   5  73 N7        30.38R WCI   2
OSHKOSH        MOCLDY    16   7  67 NW6       30.38R WCI   7
$$

WIZ032>034-041-042-053>061-291400-
SOUTHWEST WISCONSIN

CITY           SKY/WX    TMP DP  RH WIND       PRES   REMARKS
LA CROSSE      CLOUDY    13   4  67 N8        30.43R WCI   2
SPARTA         MOCLDY    10   5  78 N7        30.41S WCI   0
VIROQUA        MOCLDY    13   9  83 N6        30.35R WCI   4
BOSCOBEL       MOCLDY    20  11  68 NE3       30.39R
PRAIRIE DU CHI CLOUDY    21  12  68 N5        30.38R WCI  14
PLATTEVILLE    PTCLDY    21  15  79 CALM      30.34R
$$

WIZ056-057-062-063-064-067-068-291400-
SOUTH CENTRAL WISCONSIN

CITY           SKY/WX    TMP DP  RH WIND       PRES   REMARKS
REEDSBURG      MOCLDY    15   8  76 N5        30.37R WCI   7
BARABOO/DELLS  PTCLDY    14  10  85 NE3       30.36R
LONE ROCK      NOT AVBL
MINERAL POINT  PTCLDY    21  16  79 N7        30.33R WCI  13
MADISON        MOCLDY    17  11  77 N8        30.37R WCI   7
MIDDLETON      MOCLDY    19  13  76 NE8       30.36R WCI   9
WATERTOWN      PTCLDY    17  12  81 N7        30.35R WCI   7
MONROE         PTCLDY    19  18  93 N10       30.32R WCI   8
JANESVILLE     CLEAR     21  16  79 N6        30.35R WCI  14
$$

WIZ051-052-058>065-066-070>072-291400-
SOUTHEAST WISCONSIN

CITY           SKY/WX    TMP DP  RH WIND       PRES   REMARKS
MILWAUKEE      PTCLDY    20  11  68 N9        30.35R WCI   9
WAUKESHA       PTCLDY    16  10  79 N6        30.35R WCI   7
MILWAUKEE/TIMM PTCLDY    18  10  73 N7        30.36R WCI   8
RACINE         PTCLDY    22  15  75 N9        30.36R WCI  12
BURLINGTON     PTCLDY    20  14  79 N7        30.34R WCI  11
KENOSHA        MOCLDY    22  16  78 N8        30.34R WCI  12
FOND DU LAC    MOCLDY    17   7  64 N8        30.38R WCI   7
SHEBOYGAN      MOCLDY    16   7  67 N7        30.38R WCI   6
WEST BEND      FAIR      16   7  67 N8        30.35R WCI   5
JUNEAU         PTCLDY    15   8  74 N7        30.37R WCI   5
$$

LSZ147-162-291400-
LAKE SUPERIOR

STATION/POSITION TIME  TEMP    WIND        PRES    WAVE
                       AIR SEA DIR/SP/G            HT/PER
                 (UTC) (F)     (DEG/KT/KT) (MB)    (FT/S)
DEVILS ISLAND    1200    5     310/ 12/ 16 1032.9R
PORT WING        1200    5     340/  8/ 12 1032.2R
SAXON HARBOR     1240    6     240/  7/ 11 1030.8R
$$

LMZ867-665-643>646-291400-
LAKE MICHIGAN

STATION/POSITION TIME  TEMP    WIND        PRES    WAVE
                       AIR SEA DIR/SP/G            HT/PER
                 (UTC) (F)     (DEG/KT/KT) (MB)    (FT/S)
CHAMBERS ISLAND  1200   14     300/ 11/ 15 1027.8R
NORTHPORT PIER   1212   16     310/ 15/ 21 1027.4R
SISTER BAY       1113          330/ 16/ 20   N/A
ALGOMA LAKESHORE 1200          340/ 12/ 17   N/A
KEWAUNEE LAKESHO 1200   16     310/  6/ 11 1026.8R
SHEBOYGAN LAKESH 1200   18 36  310/ 10/ 11 1029.3R
PORT WASHINGTON  1200   19     350/  4/  7 1028.4R
MILWAUKEE LAKESH 1200   22     330/  9/ 11   N/A
KENOSHA   LAKESH 1200   25     320/  8/ 12 1026.4R
$$

TC  - TEMPERATURE IN CELSIUS
VSB - VISIBILITY IN STATUTE MILES
WCI - WIND CHILL INDEX
HX  - HEAT INDEX



USA.gov is the U.S. government's official web portal to all federal, state and local government web resources and services.